• In Deutschland
  • Länderverzeichnis
  • Für 7 Tage
  • Wassertemperatur
  • Satellitenkarten
  • Wetterkarte
  • Widgets
  • user-avatar
    Anmelden

    Stündliche Wetter Emmerich

    Heute, 11 Dezember, Montag

    Zeit Temperatur Niederschläge Wind Luftdruck Luftfeuchtigkeit
    00:00 -1°C° 0 mm 3 m/S 734 mmHg 89%
    01:00 -2°C° 0 mm 3 m/S 735 mmHg 89%
    02:00 -2°C° 0 mm 2 m/S 736 mmHg 90%
    03:00 -1°C° 0 mm 1 m/S 737 mmHg 90%
    04:00 -1°C° 0 mm 1 m/S 737 mmHg 89%
    05:00 -3°C° 0 mm 2 m/S 736 mmHg 89%
    06:00 -2°C° 0 mm 3 m/S 736 mmHg 90%
    07:00 -2°C° 0,1 mm 4 m/S 736 mmHg 88%
    08:00 -2°C° 0,1 mm 4 m/S 736 mmHg 87%
    09:00 -2°C° 0,1 mm 5 m/S 736 mmHg 86%
    10:00 -2°C° 0,8 mm 5 m/S 735 mmHg 88%
    11:00 -3°C° 0,8 mm 6 m/S 735 mmHg 90%
    12:00 -3°C° 0,8 mm 7 m/S 735 mmHg 93%
    13:00 -3°C° 0,5 mm 7 m/S 734 mmHg 93%
    14:00 -2°C° 0,5 mm 6 m/S 733 mmHg 94%
    15:00 -2°C° 0,5 mm 6 m/S 733 mmHg 95%
    16:00 -2°C° 0,9 mm 6 m/S 733 mmHg 96%
    17:00 -1°C° 0,9 mm 5 m/S 732 mmHg 96%
    18:00 0°C° 0,9 mm 5 m/S 732 mmHg 97%
    19:00 0°C° 1,3 mm 5 m/S 733 mmHg 96%
    20:00 0°C° 1,3 mm 5 m/S 733 mmHg 96%
    21:00 0°C° 1,3 mm 5 m/S 733 mmHg 96%
    22:00 0°C° 0,7 mm 5 m/S 734 mmHg 96%
    23:00 -1°C° 0,7 mm 6 m/S 735 mmHg 95%

    Morgen, 12 Dezember, Dienstag

    Zeit Temperatur Niederschläge Wind Luftdruck Luftfeuchtigkeit
    00:00 -1°C° 0,7 mm 6 m/S 736 mmHg 95%
    01:00 -1°C° 0,4 mm 6 m/S 737 mmHg 94%
    02:00 -1°C° 0,4 mm 7 m/S 739 mmHg 92%
    03:00 -1°C° 0,4 mm 7 m/S 741 mmHg 91%
    04:00 -1°C° 0,2 mm 6 m/S 743 mmHg 89%
    05:00 -1°C° 0,2 mm 6 m/S 744 mmHg 87%
    06:00 0°C° 0,2 mm 5 m/S 746 mmHg 86%
    07:00 0°C° 0,1 mm 5 m/S 747 mmHg 86%
    08:00 0°C° 0,1 mm 5 m/S 749 mmHg 87%
    09:00 0°C° 0,1 mm 5 m/S 750 mmHg 87%
    10:00 0°C° 0,1 mm 5 m/S 751 mmHg 89%
    11:00 0°C° 0,1 mm 4 m/S 752 mmHg 91%
    12:00 0°C° 0,1 mm 4 m/S 753 mmHg 92%
    13:00 0°C° 0 mm 4 m/S 754 mmHg 92%
    14:00 0°C° 0 mm 4 m/S 755 mmHg 91%
    15:00 0°C° 0 mm 4 m/S 755 mmHg 91%
    16:00 -1°C° 0 mm 4 m/S 756 mmHg 92%
    17:00 -1°C° 0 mm 4 m/S 757 mmHg 92%
    18:00 -1°C° 0 mm 4 m/S 757 mmHg 92%
    19:00 -1°C° 0 mm 5 m/S 758 mmHg 91%
    20:00 -1°C° 0 mm 5 m/S 758 mmHg 90%
    21:00 -1°C° 0 mm 5 m/S 758 mmHg 89%
    22:00 -1°C° 0 mm 5 m/S 758 mmHg 88%
    23:00 -2°C° 0 mm 6 m/S 757 mmHg 87%

    übermorgen, 13 Dezember, Mittwoch

    Zeit Temperatur Niederschläge Wind Luftdruck Luftfeuchtigkeit
    00:00 -2°C° 0 mm 6 m/S 757 mmHg 87%
    01:00 -1°C° 0 mm 6 m/S 757 mmHg 87%
    02:00 -1°C° 0 mm 7 m/S 756 mmHg 88%
    03:00 -1°C° 0 mm 7 m/S 756 mmHg 88%
    04:00 -1°C° 0,2 mm 7 m/S 755 mmHg 87%
    05:00 0°C° 0,2 mm 8 m/S 754 mmHg 87%
    06:00 0°C° 0,2 mm 8 m/S 753 mmHg 86%
    07:00 0°C° 1,3 mm 8 m/S 752 mmHg 87%
    08:00 +1°C° 1,3 mm 9 m/S 752 mmHg 88%
    09:00 +1°C° 1,3 mm 9 m/S 751 mmHg 89%
    10:00 +1°C° 1,1 mm 9 m/S 750 mmHg 90%
    11:00 +1°C° 1,1 mm 8 m/S 750 mmHg 91%
    12:00 +2°C° 1,1 mm 8 m/S 749 mmHg 92%
    13:00 +3°C° 0,4 mm 7 m/S 749 mmHg 92%
    14:00 +3°C° 0,4 mm 6 m/S 749 mmHg 92%
    15:00 +3°C° 0,4 mm 5 m/S 748 mmHg 92%
    16:00 +3°C° 0,6 mm 6 m/S 748 mmHg 93%
    17:00 +3°C° 0,6 mm 6 m/S 747 mmHg 94%
    18:00 +4°C° 0,6 mm 6 m/S 747 mmHg 94%
    19:00 +4°C° 0,9 mm 6 m/S 746 mmHg 94%
    20:00 +4°C° 0,9 mm 6 m/S 745 mmHg 94%
    21:00 +4°C° 0,9 mm 6 m/S 745 mmHg 93%
    22:00 +4°C° 0,6 mm 6 m/S 745 mmHg 93%
    23:00 +5°C° 0,6 mm 5 m/S 744 mmHg 92%

    14 Dezember, Donnerstag

    Zeit Temperatur Niederschläge Wind Luftdruck Luftfeuchtigkeit
    00:00 +5°C° 0,6 mm 5 m/S 744 mmHg 91%
    01:00 +3°C° 0 mm 5 m/S 744 mmHg 89%
    02:00 +3°C° 0 mm 6 m/S 743 mmHg 87%
    03:00 +3°C° 0 mm 6 m/S 743 mmHg 85%
    04:00 +3°C° 0,8 mm 6 m/S 743 mmHg 79%
    05:00 +2°C° 0,8 mm 6 m/S 743 mmHg 73%
    06:00 +2°C° 0,8 mm 7 m/S 743 mmHg 67%
    07:00 +2°C° 0 mm 7 m/S 743 mmHg 68%
    08:00 +2°C° 0 mm 7 m/S 743 mmHg 68%
    09:00 +2°C° 0 mm 7 m/S 744 mmHg 68%
    10:00 +2°C° 0 mm 7 m/S 743 mmHg 68%
    11:00 +3°C° 0 mm 7 m/S 743 mmHg 67%
    12:00 +3°C° 0 mm 7 m/S 743 mmHg 67%
    13:00 +3°C° 0,1 mm 6 m/S 742 mmHg 69%
    14:00 +2°C° 0,1 mm 5 m/S 742 mmHg 71%
    15:00 +2°C° 0,1 mm 5 m/S 742 mmHg 72%
    16:00 +2°C° 0 mm 5 m/S 742 mmHg 74%
    17:00 +1°C° 0 mm 5 m/S 742 mmHg 75%
    18:00 +1°C° 0 mm 5 m/S 742 mmHg 77%
    19:00 +1°C° 0 mm 5 m/S 743 mmHg 77%
    20:00 0°C° 0 mm 5 m/S 743 mmHg 78%
    21:00 0°C° 0 mm 5 m/S 744 mmHg 79%
    22:00 0°C° 0 mm 5 m/S 744 mmHg 80%
    23:00 0°C° 0 mm 5 m/S 744 mmHg 81%

    15 Dezember, Freitag

    Zeit Temperatur Niederschläge Wind Luftdruck Luftfeuchtigkeit
    00:00 0°C° 0 mm 5 m/S 744 mmHg 82%
    01:00 0°C° 0 mm 5 m/S 743 mmHg 83%
    02:00 0°C° 0 mm 5 m/S 743 mmHg 84%
    03:00 0°C° 0 mm 5 m/S 743 mmHg 85%
    04:00 0°C° 0,2 mm 5 m/S 743 mmHg 85%
    05:00 +1°C° 0,2 mm 5 m/S 742 mmHg 85%
    06:00 +1°C° 0,2 mm 6 m/S 742 mmHg 86%
    07:00 +1°C° 0,4 mm 6 m/S 742 mmHg 86%
    08:00 +2°C° 0,4 mm 6 m/S 743 mmHg 86%
    09:00 +2°C° 0,4 mm 6 m/S 743 mmHg 86%
    10:00 +2°C° 0,3 mm 5 m/S 743 mmHg 85%
    11:00 +3°C° 0,3 mm 5 m/S 743 mmHg 84%
    12:00 +3°C° 0,3 mm 5 m/S 744 mmHg 82%
    13:00 +3°C° 0,1 mm 5 m/S 744 mmHg 82%
    14:00 +3°C° 0,1 mm 5 m/S 745 mmHg 81%
    15:00 +2°C° 0,1 mm 5 m/S 746 mmHg 81%
    16:00 +2°C° 0 mm 5 m/S 747 mmHg 81%
    17:00 +3°C° 0 mm 4 m/S 747 mmHg 82%
    18:00 +1°C° 0 mm 4 m/S 748 mmHg 82%
    19:00 +1°C° 0 mm 4 m/S 749 mmHg 84%
    20:00 +1°C° 0 mm 4 m/S 750 mmHg 85%
    21:00 +1°C° 0 mm 4 m/S 750 mmHg 87%
    22:00 +1°C° 0,1 mm 4 m/S 751 mmHg 86%
    23:00 +1°C° 0,1 mm 4 m/S 751 mmHg 85%

    16 Dezember, Samstag

    Zeit Temperatur Niederschläge Wind Luftdruck Luftfeuchtigkeit
    00:00 +1°C° 0,1 mm 5 m/S 751 mmHg 84%
    01:00 +1°C° 0,2 mm 5 m/S 752 mmHg 84%
    02:00 +1°C° 0,2 mm 5 m/S 752 mmHg 84%
    03:00 +1°C° 0,2 mm 5 m/S 753 mmHg 84%
    04:00 +1°C° 0,2 mm 5 m/S 753 mmHg 84%
    05:00 +1°C° 0,2 mm 5 m/S 754 mmHg 84%
    06:00 +1°C° 0,2 mm 4 m/S 754 mmHg 85%
    07:00 +1°C° 0,1 mm 5 m/S 755 mmHg 83%
    08:00 +1°C° 0,1 mm 5 m/S 755 mmHg 82%
    09:00 +1°C° 0,1 mm 5 m/S 756 mmHg 80%
    10:00 +2°C° 0,1 mm 5 m/S 756 mmHg 78%
    11:00 +2°C° 0,1 mm 5 m/S 756 mmHg 75%
    12:00 +3°C° 0,1 mm 6 m/S 757 mmHg 73%
    13:00 +2°C° 0,2 mm 5 m/S 757 mmHg 74%
    14:00 +2°C° 0,2 mm 5 m/S 757 mmHg 76%
    15:00 +2°C° 0,2 mm 5 m/S 757 mmHg 77%
    16:00 +1°C° 0 mm 5 m/S 758 mmHg 79%
    17:00 +1°C° 0 mm 5 m/S 758 mmHg 81%
    18:00 +1°C° 0 mm 4 m/S 759 mmHg 83%
    19:00 0°C° 0 mm 4 m/S 759 mmHg 84%
    20:00 0°C° 0 mm 4 m/S 759 mmHg 84%
    21:00 0°C° 0 mm 4 m/S 759 mmHg 85%
    22:00 -1°C° 0 mm 4 m/S 759 mmHg 85%
    23:00 -1°C° 0 mm 4 m/S 759 mmHg 85%
    Mehr zeigen